FW9581 Weather Reports


time (UTC)temp
C
wind
direction
speed
KPH
gust
KPH
rain 1hr
cm
rain 24hr
cm
rain mn
cm
humidity
%
barometer
mb
20260507234635 18 249 0.0 1.6 0.00 0.20 0.00 66 1010.3
20260507233049 18 249 0.0 1.6 0.00 0.20 0.00 66 1010.4
20260507231620 18 250 0.0 6.4 0.00 0.20 0.00 65 1010.6
20260507230114 18 250 0.0 1.6 0.00 0.20 0.00 64 1010.7
20260507224635 18 250 0.0 1.6 0.00 0.20 0.00 64 1010.7
20260507223144 18 250 1.6 6.4 0.00 0.20 0.00 63 1010.7
20260507221524 19 249 0.0 3.2 0.00 0.20 0.00 65 1010.5
20260507220120 19 249 0.0 1.6 0.00 0.20 0.00 64 1010.4
20260507214621 19 249 0.0 3.2 0.00 0.20 0.20 64 1010.6
20260507213141 20 249 0.0 6.4 0.00 0.20 0.20 63 1010.7
20260507211513 20 249 0.0 3.2 0.00 0.20 0.20 64 1010.6
20260507210119 20 249 0.0 6.4 0.00 0.20 0.20 64 1010.5
20260507204632 20 249 1.6 8.0 0.00 0.20 0.20 65 1010.8
20260507203019 19 249 0.0 1.6 0.00 0.20 0.20 66 1010.9
20260507201616 19 249 0.0 0.0 0.00 0.20 0.20 65 1011.0
20260507200130 19 249 0.0 3.2 0.00 0.20 0.20 65 1011.1
20260507194555 19 249 0.0 3.2 0.00 0.20 0.20 65 1011.1
20260507193111 19 249 0.0 3.2 0.00 0.20 0.20 64 1011.1
20260507191625 19 249 0.0 1.6 0.00 0.20 0.20 63 1011.3
20260507190012 19 249 0.0 3.2 0.00 0.20 0.20 62 1011.3
20260507184613 19 249 0.0 11.3 0.00 0.20 0.20 60 1011.1
20260507183132 19 249 0.0 12.9 0.00 0.20 0.20 60 1011.1
20260507181505 19 251 9.7 16.1 0.00 0.20 0.20 59 1010.8
20260507180018 19 241 3.2 17.7 0.00 0.20 0.20 59 1010.9
20260507174621 20 241 8.0 16.1 0.00 0.20 0.20 58 1010.8
20260507173142 19 249 4.8 17.7 0.00 0.20 0.20 61 1010.9
20260507171516 20 251 11.3 17.7 0.00 0.20 0.20 62 1010.9
20260507170118 20 256 11.3 19.3 0.00 0.20 0.20 62 1011.0
20260507164630 20 255 6.4 17.7 0.00 0.20 0.20 60 1010.8
20260507163148 20 251 9.7 16.1 0.00 0.20 0.20 62 1011.0
20260507161556 21 246 8.0 17.7 0.00 0.20 0.20 60 1011.1
20260507160116 22 247 9.7 14.5 0.00 0.20 0.20 58 1011.1
20260507154629 22 260 6.4 14.5 0.00 0.20 0.20 56 1011.1
20260507153006 23 271 1.6 9.7 0.00 0.20 0.20 52 1011.1
20260507151523 23 264 1.6 8.0 0.00 0.20 0.20 54 1011.2
20260507150120 23 263 8.0 12.9 0.00 0.20 0.20 54 1011.6
20260507144632 23 281 1.6 11.3 0.00 0.20 0.20 54 1011.6
20260507143003 23 274 0.0 12.9 0.00 0.20 0.20 55 1011.4
20260507141521 23 247 8.0 14.5 0.00 0.20 0.20 56 1011.7
20260507140132 23 249 1.6 12.9 0.00 0.20 0.20 55 1011.9
20260507134632 24 259 1.6 17.7 0.00 0.20 0.20 53 1012.1
20260507133002 25 266 1.6 11.3 0.00 0.20 0.20 50 1012.1
20260507131625 24 267 1.6 12.9 0.00 0.20 0.20 53 1012.3
20260507130123 24 292 1.6 8.0 0.00 0.20 0.20 48 1012.5
20260507124642 25 295 1.6 12.9 0.00 0.20 0.20 50 1012.6
20260507123014 24 311 0.0 4.8 0.00 0.20 0.20 51 1012.9
20260507121614 24 316 3.2 8.0 0.00 0.20 0.20 51 1013.1
20260507120137 24 321 4.8 12.9 0.00 0.20 0.20 51 1012.9
20260507114643 25 276 0.0 6.4 0.00 0.20 0.20 51 1012.9
20260507113004 23 266 1.6 14.5 0.00 0.20 0.20 55 1013.1
20260507111559 23 301 0.0 8.0 0.00 0.20 0.20 54 1013.3
20260507110110 23 328 0.0 6.4 0.00 0.20 0.20 54 1013.7
20260507104630 22 220 1.6 9.7 0.00 0.20 0.20 54 1013.7
20260507103133 23 219 0.0 4.8 0.00 0.20 0.20 54 1013.9
20260507101640 22 213 3.2 8.0 0.00 0.20 0.20 55 1014.1
20260507100005 22 190 0.0 6.4 0.00 0.20 0.20 55 1014.0
20260507094509 21 189 3.2 11.3 0.00 0.20 0.20 56 1013.9
20260507093106 22 179 1.6 8.0 0.00 0.20 0.20 55 1014.0
20260507091616 21 179 6.4 11.3 0.00 0.20 0.20 53 1014.2
20260507090124 22 135 1.6 4.8 0.00 0.20 0.20 56 1014.1
20260507084632 21 135 0.0 9.7 0.00 0.20 0.20 60 1013.9
20260507083003 21 152 0.0 3.2 0.00 0.20 0.20 60 1014.1
20260507081555 20 152 0.0 3.2 0.00 0.20 0.20 61 1014.2
20260507080023 20 152 0.0 3.2 0.00 0.20 0.20 62 1014.3
20260507074617 19 152 0.0 3.2 0.00 0.20 0.20 65 1014.3
20260507073125 18 152 0.0 3.2 0.00 0.20 0.20 68 1014.3
20260507071626 18 152 0.0 6.4 0.00 0.20 0.20 70 1014.3
20260507070133 17 152 0.0 4.8 0.00 0.20 0.20 73 1014.4
20260507064637 16 152 0.0 6.4 0.00 0.20 0.20 76 1014.2
20260507063101 16 152 0.0 6.4 0.00 0.20 0.20 76 1014.2
20260507061614 16 152 0.0 6.4 0.00 0.20 0.20 77 1014.3
20260507060124 16 204 0.0 3.2 0.00 0.20 0.20 76 1014.2
20260507054508 16 204 0.0 1.6 0.00 0.20 0.20 78 1014.1
20260507053057 16 204 0.0 0.0 0.00 0.20 0.20 81 1014.1
20260507051636 15 204 0.0 1.6 0.00 0.20 0.20 84 1014.2
20260507050004 14 204 1.6 4.8 0.00 0.20 0.20 85 1014.0
20260507044502 14 204 0.0 1.6 0.00 0.20 0.20 86 1013.8
20260507043017 13 204 0.0 0.0 0.00 0.20 0.20 86 1013.5
20260507041611 13 204 0.0 3.2 0.00 0.20 0.20 86 1013.5
20260507040125 14 204 0.0 0.0 0.00 0.20 0.20 85 1013.5
20260507034634 14 204 0.0 4.8 0.00 0.20 0.20 85 1013.6
20260507033015 14 203 0.0 11.3 0.00 0.20 0.20 85 1013.8
20260507031614 14 129 1.6 6.4 0.00 0.20 0.20 86 1013.6
20260507030129 14 126 8.0 11.3 0.03 0.20 0.20 86 1013.2
20260507024643 14 112 3.2 11.3 0.05 0.20 0.20 85 1013.1
20260507023020 14 184 6.4 9.7 0.05 0.20 0.20 85 1013.0
20260507021618 14 271 1.6 6.4 0.05 0.20 0.20 83 1013.5
20260507020132 14 271 0.0 3.2 0.03 0.18 0.18 83 1013.6
20260507014510 14 178 4.8 14.5 0.00 0.15 0.15 82 1013.6
20260507013110 14 174 6.4 19.3 0.05 0.15 0.15 81 1013.7
20260507011626 14 207 8.0 20.9 0.08 0.15 0.15 81 1013.7
20260507010140 13 143 4.8 14.5 0.08 0.15 0.15 83 1013.7
20260507004517 13 147 1.6 11.3 0.15 0.15 0.15 85 1013.9
20260507003113 13 147 4.8 8.0 0.13 0.13 0.13 82 1013.9
20260507001618 14 147 3.2 6.4 0.08 0.08 0.08 84 1014.1
20260507000126 14 147 0.0 4.8 0.08 0.08 0.08 83 1014.1